TimePDT,TemperatureF,Dew PointF,Humidity,Sea Level PressureIn,VisibilityMPH,Wind Direction,Wind SpeedMPH,Gust SpeedMPH,PrecipitationIn,Events,Conditions,WindDirDegrees,DateUTC
12:53 AM,57.0,53.1,87,30.06,10.0,West,8.1,-,N/A,,Overcast,260,2013-08-02 07:53:00
1:53 AM,57.0,53.1,87,30.07,10.0,West,5.8,-,N/A,,Overcast,280,2013-08-02 08:53:00
2:53 AM,57.0,53.1,87,30.06,10.0,West,6.9,-,N/A,,Overcast,280,2013-08-02 09:53:00
3:30 AM,57.0,53.1,87,30.06,10.0,WSW,3.5,-,N/A,,Overcast,240,2013-08-02 10:30:00
3:53 AM,57.0,53.1,87,30.06,10.0,WSW,3.5,-,N/A,,Overcast,250,2013-08-02 10:53:00
4:10 AM,57.0,53.1,87,30.07,10.0,West,5.8,-,N/A,,Overcast,270,2013-08-02 11:10:00
4:53 AM,57.0,53.1,87,30.07,10.0,West,4.6,-,N/A,,Overcast,260,2013-08-02 11:53:00
5:19 AM,57.0,52.0,83,30.06,10.0,WSW,6.9,-,N/A,,Overcast,240,2013-08-02 12:19:00
5:53 AM,57.0,52.0,83,30.07,10.0,West,5.8,-,N/A,,Overcast,260,2013-08-02 12:53:00
6:41 AM,57.0,53.1,87,30.07,6.0,Calm,Calm,-,0.03,Rain,Rain,0,2013-08-02 13:41:00
6:53 AM,55.9,54.0,93,30.07,10.0,Calm,Calm,-,0.05,Rain,Light Rain,0,2013-08-02 13:53:00
7:48 AM,55.4,53.6,94,30.09,10.0,WNW,3.5,-,0.00,,Overcast,290,2013-08-02 14:48:00
7:53 AM,55.9,54.0,93,30.09,10.0,WNW,4.6,-,0.00,,Overcast,290,2013-08-02 14:53:00
8:07 AM,55.9,53.1,90,30.09,10.0,Calm,Calm,-,N/A,,Overcast,0,2013-08-02 15:07:00
8:18 AM,55.9,54.0,93,30.09,10.0,Calm,Calm,-,0.00,Rain,Light Rain,0,2013-08-02 15:18:00
8:31 AM,57.0,54.0,89,30.09,10.0,Calm,Calm,-,0.01,Rain,Light Rain,0,2013-08-02 15:31:00
8:41 AM,57.0,54.0,89,30.09,10.0,Calm,Calm,-,0.01,,Overcast,0,2013-08-02 15:41:00
8:53 AM,57.0,55.0,93,30.09,10.0,Calm,Calm,-,0.01,,Overcast,0,2013-08-02 15:53:00
9:21 AM,57.9,55.0,90,30.09,10.0,Variable,3.5,-,N/A,,Overcast,0,2013-08-02 16:21:00
9:30 AM,57.0,54.0,89,30.09,10.0,Calm,Calm,-,N/A,,Overcast,0,2013-08-02 16:30:00
9:53 AM,57.9,55.0,90,30.10,10.0,Variable,3.5,-,N/A,,Overcast,0,2013-08-02 16:53:00
10:07 AM,57.9,55.0,90,30.10,10.0,NW,3.5,-,N/A,,Overcast,310,2013-08-02 17:07:00
10:32 AM,57.9,55.0,90,30.10,10.0,WNW,4.6,-,N/A,,Overcast,300,2013-08-02 17:32:00
10:48 AM,57.2,55.4,94,30.11,10.0,North,4.6,-,0.00,Rain,Light Rain,10,2013-08-02 17:48:00
10:53 AM,57.0,54.0,89,30.11,9.0,Calm,Calm,-,0.01,Rain,Light Rain,0,2013-08-02 17:53:00
11:18 AM,57.9,55.9,93,30.11,10.0,Calm,Calm,-,0.00,,Overcast,0,2013-08-02 18:18:00
11:51 AM,59.0,55.4,88,30.11,10.0,WNW,4.6,-,0.00,,Overcast,290,2013-08-02 18:51:00
11:53 AM,57.9,55.0,90,30.12,10.0,WNW,3.5,-,0.00,,Overcast,290,2013-08-02 18:53:00
12:12 PM,59.0,55.0,87,30.11,10.0,Variable,3.5,-,N/A,,Overcast,0,2013-08-02 19:12:00
12:22 PM,59.0,55.9,90,30.12,10.0,Calm,Calm,-,N/A,,Overcast,0,2013-08-02 19:22:00
12:53 PM,59.0,55.0,87,30.12,10.0,NW,5.8,-,N/A,,Overcast,320,2013-08-02 19:53:00
1:53 PM,59.0,55.9,90,30.13,10.0,NW,8.1,-,0.00,,Overcast,310,2013-08-02 20:53:00
2:10 PM,57.9,55.0,90,30.13,10.0,NW,4.6,-,N/A,,Overcast,320,2013-08-02 21:10:00
2:53 PM,59.0,55.9,90,30.13,10.0,Calm,Calm,-,N/A,,Overcast,0,2013-08-02 21:53:00
3:53 PM,59.0,55.9,90,30.13,10.0,NW,3.5,-,N/A,,Overcast,320,2013-08-02 22:53:00
4:53 PM,60.1,55.9,86,30.12,10.0,Calm,Calm,-,N/A,,Overcast,0,2013-08-02 23:53:00
5:53 PM,59.0,55.0,87,30.12,10.0,NW,5.8,-,N/A,,Overcast,310,2013-08-03 00:53:00
6:25 PM,60.1,55.9,86,30.13,10.0,West,4.6,-,N/A,,Overcast,280,2013-08-03 01:25:00
6:53 PM,59.0,55.9,90,30.13,10.0,WNW,5.8,-,N/A,,Overcast,290,2013-08-03 01:53:00
7:53 PM,59.0,55.0,87,30.12,10.0,WNW,5.8,-,N/A,,Overcast,290,2013-08-03 02:53:00
8:53 PM,59.0,55.0,87,30.14,10.0,West,3.5,-,N/A,,Overcast,270,2013-08-03 03:53:00
9:53 PM,57.9,55.0,90,30.14,10.0,SW,3.5,-,N/A,,Overcast,230,2013-08-03 04:53:00
10:53 PM,57.9,55.0,90,30.14,10.0,Calm,Calm,-,N/A,,Overcast,0,2013-08-03 05:53:00
11:35 PM,57.0,55.0,93,30.14,10.0,SW,3.5,-,N/A,,Mostly Cloudy,230,2013-08-03 06:35:00
11:53 PM,57.0,55.0,93,30.14,10.0,SW,5.8,-,N/A,,Overcast,230,2013-08-03 06:53:00